Regional Weather Roundup
Issued by NWS

Home | Current Version | Previous Version | Text Only | Print | Product List | Glossary Off
Versions: 1 2 3 4 5 6 7 8 9 10 11 12 13 14 15 16 17 18 19 20 21 22 23 24 25 26 27 28 29 30 31 32 33 34 35 36 37 38 39 40 41 42 43 44 45 46 47 48 49 50

000
ASUS42 KTBW 290015
RWRFL
FLORIDA REGIONAL WEATHER ROUNDUP
NATIONAL WEATHER SERVICE TAMPA BAY RUSKIN FL
800 PM EDT SAT MAR 28 2015

NOTE: "FAIR" INDICATES FEW OR NO CLOUDS BELOW 12,000 FEET WITH NO
SIGNIFICANT WEATHER AND/OR OBSTRUCTIONS TO VISIBILITY.


FLZ001>010-012>015-112-114-115-290100-
PANHANDLE FLORIDA

CITY           SKY/WX    TMP DP  RH WIND       PRES   REMARKS
PENSACOLA      CLEAR     57  43  59 CALM      30.19S
PENSACOLA NAS  CLEAR     56  43  61 SW3       30.20R
MILTON NAS     CLEAR     57  32  38 N6        30.21
CRESTVIEW      PTCLDY    57  31  37 N6        30.23R
DUKE FIELD       N/A    N/A N/A N/A NW6         N/A
VALPARAISO     MOCLDY    60  31  33 N8        30.19R
MARY ESTHER    CLEAR     58  28  31 N9        30.18S
TRI COUNTY     FAIR      57  32  38 N5        30.22R
PANAMA CITY    FAIR      57  35  43 NW6       30.19R
TYNDALL AFB    CLEAR     59  35  39 N7        30.19R
APALACHICOLA   CLEAR     61  38  42 W8        30.19R

STATION/POSITION SKY/WX   TEMP    WIND        PRES    WAVE   SWELL
                          AIR SEA DIR/SP/G            HT/PER HT/PER
                          (F)     (DEG/KT/KT) (MB)    (FT/S) (FT/S)
30.1N   87.6W              60 67  260/  4/  6 1022.2R   1
29.2N   88.2W              60 72  100/  4/  8 1023.4R   1/ 4   2/ 4
28.8N   86.0W              60 75  340/ 12/ 16 1023.4R   2/ 5   2/ 6
PANAMA CITY BEAC           61 64  320/  9/ 15 1021.7R
CAPE SAN BLAS    NOT AVBL
TOWER C                    60     310/ 19/ 20 1021.9R
28.5N   84.5W              61 68  300/ 14/ 16 1023.0R   3/ 7   2/ 7

$$
FLZ011-016>038-118-127-128-134-139-239-290100-
NORTH FLORIDA

CITY           SKY/WX    TMP DP  RH WIND       PRES   REMARKS
MARIANNA       PTCLDY    57  30  35 NW7       30.18R
TALLAHASSEE    PTCLDY    60  31  33 NW6       30.18R
PERRY          CLEAR     56  32  40 NW3       30.19R
CROSS CITY       N/A     58  36  43 NW5       30.18R
LAKE CITY      FAIR      54  32  43 NW6       30.18R
GAINESVILLE    CLEAR     56  32  40 NW5       30.17R
MAYPORT NAS    CLEAR     57  34  41 VRB5      30.15R
JACKSONVILLE   PTCLDY    54  32  43 NW6       30.15R
JAX NAS        PTCLDY    62  27  26 W6        30.16R
JAX CRAIG      CLEAR     58  29  33 NW8       30.15R
JAX CECIL      CLEAR     55  28  35 NW7       30.15R
FERNANDINA BEA FAIR      61  32  33 W6        30.14R
ST AUGUSTINE   CLEAR     58  32  37 W6        30.17R

STATION/POSITION SKY/WX   TEMP    WIND        PRES    WAVE   SWELL
                          AIR SEA DIR/SP/G            HT/PER HT/PER
                          (F)     (DEG/KT/KT) (MB)    (FT/S) (FT/S)
SHELL POINT                62     330/ 10/ 14   N/A
KEATON BEACH               59     350/  3/  5 1022.3R
CEDAR KEY                  59     300/  7/  9 1022.7R
FERNANDINA                 59 63  300/ 11/ 13 1019.5R
30.7N   81.3W                 61                N/A     2/ 3
MAYPORT                    60 60  300/ 12/ 17 1019.9R
31.4N   80.9W              58 61  290/ 16/ 21 1020.1R   3/ 3   2/ 8
ST AUGUSTINE               59 61  300/  6/  6 1022.0R

$$
FLZ040-043>046-052-053-057-058-063-144-290100-
INTERIOR CENTRAL FLORIDA

CITY           SKY/WX    TMP DP  RH WIND       PRES   REMARKS
THE VILLAGES     N/A     57  39  51 W7        30.08R HAZE
LEESBURG       CLEAR     60  41  49 W10       30.17R
SANFORD        PTCLDY    63  40  42 W12       30.15R
ORLANDO EXEC   PTCLDY    63  34  33 W13       30.16R
ORLANDO INTL   MOCLDY    63  30  28 W12       30.16R
KISSIMMEE      CLEAR     63  36  36 W8        30.16R
WINTER HAVEN   MOCLDY    61  37  41 W9        30.18R
LAKELAND       PTCLDY    61  37  41 NW7       30.18R
BARTOW         FAIR      61  36  39 NW8       30.18R
OKEECHOBEE     MOCLDY    61  43  51 NW6       30.16R

$$
FLZ041-047-054-059-064-141-147-290100-
EAST CENTRAL FLORIDA

CITY           SKY/WX    TMP DP  RH WIND       PRES   REMARKS
DAYTONA BEACH  PTCLDY    62  36  37 W6        30.15R
DELAND           N/A    N/A N/A N/A W3        30.15R
NEW SMYRNA BEA CLEAR     57  43  58 E7        30.16R
JFK SPACE CTR  PTCLDY    57  46  66 E3        30.13R
TITUSVILLE     PTCLDY    63  39  42 VRB5      30.14R
CAPE CANAVERAL PTCLDY    57  46  65 NE5       30.14R
PATRICK AFB    PTCLDY    65  37  35 W12       30.14
MELBOURNE      PTCLDY    61  36  39 NW6       30.14R
VERO BEACH     MOCLDY    62  43  49 W5        30.15R
FT PIERCE      MOCLDY    58  46  64 CALM      30.14R
STUART         CLOUDY    63  37  39 W3        30.16R

STATION/POSITION SKY/WX   TEMP    WIND        PRES    WAVE   SWELL
                          AIR SEA DIR/SP/G            HT/PER HT/PER
                          (F)     (DEG/KT/KT) (MB)    (FT/S) (FT/S)
28.5N   80.2W              61 71  130/  2/  4 1020.7R
28.9N   78.5W              63 76  310/ 17/ 21 1020.1R
TRIDENT PIER               62 73   70/  5/  8 1020.4R
28.4N   80.5W                 72                N/A     1/ 9
27.5N   80.2W                 75                N/A     3/ 9

$$
FLZ050-056-061-142-242-148-248-149-249-151-251-155-255-
160-260-290100-
WEST CENTRAL FLORIDA

CITY           SKY/WX    TMP DP  RH WIND       PRES   REMARKS
CRYSTAL RIVER  FAIR      55  41  58 W6        30.19R
INVERNESS      FAIR      55  -4   8 CALM      30.19R
BROOKSVILLE    CLEAR     57  41  55 NW10      30.20R
ZEPHYRHILLS    FAIR      55  36  47 NW7       30.19R
CLEARWATER     PTCLDY    59  43  55 NW13      30.19R
TAMPA INTL     PTCLDY    60  38  43 NW13      30.19R
TAMPA EXEC     PTCLDY    59  41  51 CALM      30.19R
PLANT CITY     PTCLDY    59  41  51 W6        30.20R
MACDILL AFB    PTCLDY    59  44  57 VRB6      30.18S
PETER O KNIGHT PTCLDY    61  41  48 N3        30.19R
ST PETERSBURG  PTCLDY    61  44  53 N9        30.17R
SARASOTA       MOCLDY    59  43  55 N7        30.18R
VENICE         FAIR      63  41  45 N12       30.19S

STATION/POSITION SKY/WX   TEMP    WIND        PRES    WAVE   SWELL
                          AIR SEA DIR/SP/G            HT/PER HT/PER
                          (F)     (DEG/KT/KT) (MB)    (FT/S) (FT/S)
CEDAR KEY                  59     300/  7/  9 1022.7R
28.5N   84.5W              61 68  300/ 14/ 16 1023.0R   3/ 7   2/ 7
27.3N   84.2W                 72                N/A     5/ 6
CLEARWATER BEACH           61 70  320/ 14/ 17 1022.1R
MIDDLE TAMPA BAY           62     350/ 15/ 17 1021.9R
VENICE                     63 73  360/ 11/ 13 1021.7R

$$
FLZ066-069-070-075>078-162-262-165-265-290100-
SOUTHWEST FLORIDA AND KEYS

CITY           SKY/WX    TMP DP  RH WIND       PRES   REMARKS
PUNTA GORDA    MOCLDY    62  40  44 NW10      30.20R
FT MYERS       MOCLDY    64  44  48 NW13      30.17R
SOUTHWEST INTL MOCLDY    64  40  41 N8        30.17R
NAPLES         MOCLDY    66  48  52 N10G16    30.17R
MARCO ISLAND   CLEAR     64  46  52 NW7       30.17R
IMMOKALEE      CLEAR    N/A N/A N/A CALM      30.17R
MARATHON       CLOUDY    70  52  52 N7        30.15R
KEY WEST NAS   CLOUDY    68  52  56 N20       30.16R
KEY WEST INTL  CLOUDY    68  54  60 N16G25    30.16R

STATION/POSITION SKY/WX   TEMP    WIND        PRES    WAVE   SWELL
                          AIR SEA DIR/SP/G            HT/PER HT/PER
                          (F)     (DEG/KT/KT) (MB)    (FT/S) (FT/S)
VENICE                     63 73  360/ 11/ 13 1021.7R
NAPLES                     67 75  320/ 18/ 21 1020.7R
26.0N   85.6W              68 74   10/ 10/ 14 1022.6R   4/ 6   3/ 6
DRY TORTUGAS               69      20/ 16/ 19 1021.4R
NW FL BAY                  70     350/ 12/ 14 1020.5
SAND KEY                   68     360/ 20/ 24 1021.3R
SOMBRERO KEY               70     350/ 12/ 14 1021.6R
LONG KEY                   70 76  340/  9/ 11 1021.8R
MOLASSES REEF              70 77   20/  9/ 10 1020.8R

$$
FLZ067-068-071>074-168-172>174-290100-
SOUTHEAST FLORIDA

CITY           SKY/WX    TMP DP  RH WIND       PRES   REMARKS
W PALM BEACH   CLOUDY    65  45  48 NW7       30.14R
FT LAUDER-EXEC CLOUDY    67  45  45 N5        30.15R
FT LAUDERDALE  CLOUDY    66  46  48 NW8       30.15R
POMPANO BEACH  CLOUDY    67  44  43 NW9       30.14S
PEMBROKE PINES CLOUDY    67  46  47 N7        30.16R
OPA LOCKA      CLOUDY    68  45  43 N6        30.15S
MIAMI          CLOUDY    69  44  40 NW5       30.15S
WEST KENDALL   CLOUDY    66  47  50 N5        30.15S
HOMESTEAD      CLOUDY    68  47  47 NW5       30.15R

STATION/POSITION SKY/WX   TEMP    WIND        PRES    WAVE   SWELL
                          AIR SEA DIR/SP/G            HT/PER HT/PER
                          (F)     (DEG/KT/KT) (MB)    (FT/S) (FT/S)
PORT EVERGLADES            68     300/  7/ 10 1020.3R
VIRGINIA KEY               69 79  360/  3/  9 1020.3R
LAKE WORTH                 68 76  280/  5/ 11 1020.2R
SETTLEMENT POINT           67     320/  9/ 10 1021.7R

$$



USA.gov is the U.S. government's official web portal to all federal, state and local government web resources and services.